Flag for Canada Weather past 2 weeks in Alert, Nunavut, Canada

Now
37 °F

Broken clouds.


Feels Like: 33 °F
Forecast: N/A
Wind: 6 mph from North

Location: Alert Airport

Current Time: Jul 28, 2015 at 4:42:21 PM

Latest Report: Jul 28, 2015 at 3:00 PM


Visibility: 15 mi

Pressure: 29.97 "Hg

Humidity: 93%

Dew point: 36 °F

Location of AlertLocation

Historic Weather in Alert — Graph

°F

Alert temperature yesterday

Maximum temperature yesterday: 34 °F (at 10:00 AM)
Minimum temperature yesterday: 32 °F (at 8:00 AM)
Average temperature yesterday: 33 °F

Past Weeks' High & Low Weather Summary

 TemperatureHumidityPressure
High66 °F (Jul 14, 11:00 AM)100% (Jul 20, 1:00 PM)30.32 "Hg (Jul 20, 1:00 PM)
Low32 °F (Jul 20, 2:00 PM)40% (Jul 14, 11:00 AM)29.84 "Hg (Jul 27, 3:00 PM)
Average40 °F86%30.15 "Hg
* Reported Jul 13 3:00 PM — Jul 28 3:00 PM, Alert, Weather by CustomWeather, © 2015

Note: Actual official high and low records may vary slightly from our data, if they occured in-between our weather recording intervals... More about our weather records

Advertising

Alert weather history for previous 24 hours

 ConditionsComfort  
Time TempWeatherWind HumidityBarometerVisibility
3:00 PM
Tue, Jul 28
37 °FBroken clouds.6 mph93%29.97 "Hg15 mi
2:00 PM36 °FPartly sunny.5 mph93%29.96 "Hg15 mi
1:00 PM37 °FPartly sunny.5 mph100%29.96 "Hg15 mi
12:00 PM34 °FScattered clouds.6 mph100%29.95 "Hg15 mi
11:00 AM34 °FFog.7 mph100%29.95 "Hg3 mi
10:00 AM34 °FFog.9 mph100%29.95 "Hg1 mi
9:00 AM34 °FFog.6 mph100%29.94 "Hg1 mi
8:00 AM37 °FPartly sunny.3 mph93%29.94 "Hg15 mi
7:00 AM36 °FPassing clouds.7 mph93%29.94 "Hg15 mi
6:00 AM36 °FScattered clouds.8 mph93%29.93 "Hg15 mi
5:00 AM34 °FScattered clouds.6 mph100%29.93 "Hg15 mi
4:00 AM34 °FMore clouds than sun.3 mph100%29.92 "Hg15 mi
3:49 AM34 °FMostly cloudy.3 mph100%29.92 "Hg10 mi
3:00 AM34 °FLight rain. Fog.3 mph100%29.91 "Hg2 mi
2:00 AM34 °FLight rain. Fog.3 mph100%29.90 "Hg1 mi
1:00 AM34 °FLight rain. Fog.3 mph100%29.89 "Hg1 mi
Weather by CustomWeather, © 2015

See weather overviewHow to use our weather pages